Location: Forli
(44.2227°N, 12.0407°E)
Time: 13:49:48
(UTC+02:00)

UWE-3 - Pass Details

Date: 22 April 2026
Orbit: 542 x 613 km, 97.9° (Epoch: 10 May)

Event Time Altitude Azimuth Distance (km) Brightness Sun altitude
Rises 03:58:03 0° 15° (NNE) 2,728 ? -22.0°
Reaches altitude 10° 04:00:12 10° 17° (NNE) 1,823 ? -21.7°
Maximum altitude 04:04:07 70° 102° (ESE) 580 ? -21.2°
Enters shadow 04:04:54 53° 164° (SSE) 673 ? -21.1°
